• In India
  • List of Countries
  • For 7 days
  • Water Temperature
  • Satellite Maps
  • Weather Map
  • Weather Widgets
  • user-avatar
    Login

    Hourly Weather Mostar

    Today, 23 January, Tuesday

    Time Temperature Precipitation Wind Pressure Humidity
    00:00 +4°C° 0 mm 1 mps 755 mmHg 62%
    01:00 +4°C° 0 mm 2 mps 754 mmHg 61%
    02:00 +4°C° 0 mm 2 mps 755 mmHg 61%
    03:00 +5°C° 0 mm 1 mps 755 mmHg 62%
    04:00 +5°C° 0 mm 1 mps 755 mmHg 63%
    05:00 +6°C° 0 mm 1 mps 756 mmHg 65%
    06:00 +6°C° 0 mm 1 mps 756 mmHg 66%
    07:00 +5°C° 0 mm 2 mps 756 mmHg 70%
    08:00 +6°C° 0.2 mm 2 mps 757 mmHg 72%
    09:00 +6°C° 0.2 mm 2 mps 757 mmHg 74%
    10:00 +7°C° 0.2 mm 3 mps 758 mmHg 75%
    11:00 +7°C° 0.1 mm 3 mps 758 mmHg 75%
    12:00 +8°C° 0.1 mm 3 mps 759 mmHg 75%
    13:00 +8°C° 0 mm 3 mps 759 mmHg 74%
    14:00 +8°C° 0 mm 3 mps 760 mmHg 74%
    15:00 +7°C° 0 mm 4 mps 760 mmHg 74%
    16:00 +6°C° 0 mm 4 mps 761 mmHg 74%
    17:00 +5°C° 0 mm 4 mps 761 mmHg 76%
    18:00 +4°C° 0 mm 4 mps 762 mmHg 78%
    19:00 +3°C° 0 mm 4 mps 763 mmHg 80%
    20:00 +3°C° 0 mm 4 mps 763 mmHg 81%
    21:00 +3°C° 0 mm 4 mps 763 mmHg 82%
    22:00 +3°C° 0 mm 4 mps 763 mmHg 82%
    23:00 +1°C° 0 mm 4 mps 764 mmHg 82%

    Tomorrow, 24 January, Wednesday

    Time Temperature Precipitation Wind Pressure Humidity
    00:00 +1°C° 0 mm 4 mps 764 mmHg 83%
    01:00 +2°C° 0 mm 3 mps 765 mmHg 83%
    02:00 +2°C° 0 mm 3 mps 765 mmHg 82%
    03:00 +2°C° 0 mm 3 mps 765 mmHg 82%
    04:00 +2°C° 0 mm 3 mps 765 mmHg 82%
    05:00 +2°C° 0 mm 3 mps 765 mmHg 82%
    06:00 +2°C° 0 mm 3 mps 765 mmHg 82%
    07:00 +1°C° 0 mm 3 mps 765 mmHg 82%
    08:00 +3°C° 0 mm 3 mps 766 mmHg 78%
    09:00 +4°C° 0 mm 3 mps 766 mmHg 75%
    10:00 +6°C° 0 mm 2 mps 766 mmHg 71%
    11:00 +7°C° 0 mm 2 mps 766 mmHg 70%
    12:00 +8°C° 0 mm 2 mps 765 mmHg 69%
    13:00 +10°C° 0 mm 1 mps 765 mmHg 68%
    14:00 +10°C° 0 mm 1 mps 765 mmHg 70%
    15:00 +9°C° 0 mm 1 mps 765 mmHg 72%
    16:00 +9°C° 0 mm 1 mps 765 mmHg 74%
    17:00 +8°C° 0 mm 1 mps 765 mmHg 75%
    18:00 +7°C° 0 mm 1 mps 765 mmHg 76%
    19:00 +6°C° 0 mm 1 mps 766 mmHg 77%
    20:00 +6°C° 0 mm 1 mps 766 mmHg 75%
    21:00 +6°C° 0 mm 1 mps 765 mmHg 73%
    22:00 +5°C° 0 mm 1 mps 765 mmHg 72%
    23:00 +5°C° 0 mm 1 mps 765 mmHg 70%

    Day after tomorrow, 25 January, Thursday

    Time Temperature Precipitation Wind Pressure Humidity
    00:00 +5°C° 0 mm 1 mps 765 mmHg 68%
    01:00 +5°C° 0 mm 1 mps 765 mmHg 66%
    02:00 +5°C° 0 mm 1 mps 765 mmHg 66%
    03:00 +5°C° 0 mm 1 mps 764 mmHg 66%
    04:00 +4°C° 0 mm 2 mps 764 mmHg 65%
    05:00 +4°C° 0 mm 2 mps 764 mmHg 65%
    06:00 +4°C° 0 mm 2 mps 764 mmHg 65%
    07:00 +4°C° 0 mm 2 mps 764 mmHg 66%
    08:00 +7°C° 0 mm 1 mps 764 mmHg 66%
    09:00 +8°C° 0 mm 1 mps 764 mmHg 67%
    10:00 +9°C° 0 mm 1 mps 764 mmHg 67%
    11:00 +10°C° 0 mm 1 mps 763 mmHg 68%
    12:00 +10°C° 0 mm 1 mps 763 mmHg 70%
    13:00 +10°C° 0 mm 2 mps 762 mmHg 71%
    14:00 +9°C° 0 mm 2 mps 762 mmHg 73%
    15:00 +9°C° 0 mm 2 mps 762 mmHg 75%
    16:00 +9°C° 0 mm 1 mps 761 mmHg 77%
    17:00 +8°C° 0 mm 2 mps 761 mmHg 78%
    18:00 +7°C° 0 mm 2 mps 761 mmHg 80%
    19:00 +6°C° 0 mm 2 mps 762 mmHg 81%
    20:00 +6°C° 0 mm 2 mps 762 mmHg 81%
    21:00 +6°C° 0 mm 2 mps 762 mmHg 81%
    22:00 +5°C° 0 mm 2 mps 762 mmHg 81%
    23:00 +5°C° 0 mm 2 mps 761 mmHg 80%

    26 January, Friday

    Time Temperature Precipitation Wind Pressure Humidity
    00:00 +4°C° 0 mm 3 mps 761 mmHg 79%
    01:00 +4°C° 0 mm 3 mps 761 mmHg 78%
    02:00 +4°C° 0 mm 3 mps 760 mmHg 77%
    03:00 +4°C° 0 mm 3 mps 760 mmHg 76%
    04:00 +4°C° 0 mm 3 mps 760 mmHg 75%
    05:00 +4°C° 0 mm 3 mps 760 mmHg 75%
    06:00 +4°C° 0 mm 3 mps 760 mmHg 74%
    07:00 +4°C° 0 mm 3 mps 760 mmHg 74%
    08:00 +5°C° 0 mm 3 mps 760 mmHg 73%
    09:00 +8°C° 0 mm 3 mps 759 mmHg 72%
    10:00 +9°C° 0 mm 3 mps 759 mmHg 70%
    11:00 +10°C° 0 mm 4 mps 759 mmHg 70%
    12:00 +10°C° 0 mm 4 mps 759 mmHg 70%
    13:00 +11°C° 0 mm 4 mps 758 mmHg 69%
    14:00 +10°C° 0 mm 4 mps 758 mmHg 72%
    15:00 +10°C° 0 mm 4 mps 758 mmHg 74%
    16:00 +8°C° 0 mm 4 mps 758 mmHg 76%
    17:00 +8°C° 0 mm 4 mps 759 mmHg 78%
    18:00 +7°C° 0 mm 4 mps 759 mmHg 79%
    19:00 +6°C° 0 mm 4 mps 759 mmHg 80%
    20:00 +6°C° 0 mm 4 mps 759 mmHg 78%
    21:00 +6°C° 0 mm 4 mps 760 mmHg 77%
    22:00 +6°C° 0 mm 4 mps 760 mmHg 76%
    23:00 +6°C° 0 mm 4 mps 760 mmHg 74%

    27 January, Saturday

    Time Temperature Precipitation Wind Pressure Humidity
    00:00 +5°C° 0 mm 4 mps 760 mmHg 73%
    01:00 +5°C° 0 mm 4 mps 760 mmHg 72%
    02:00 +5°C° 0 mm 4 mps 760 mmHg 72%
    03:00 +5°C° 0 mm 4 mps 760 mmHg 72%
    04:00 +5°C° 0 mm 4 mps 760 mmHg 71%
    05:00 +5°C° 0 mm 4 mps 760 mmHg 73%
    06:00 +5°C° 0 mm 4 mps 760 mmHg 74%
    07:00 +6°C° 0 mm 4 mps 760 mmHg 75%
    08:00 +7°C° 0 mm 4 mps 761 mmHg 76%
    09:00 +8°C° 0 mm 4 mps 761 mmHg 76%
    10:00 +10°C° 0 mm 4 mps 761 mmHg 76%
    11:00 +11°C° 0 mm 4 mps 761 mmHg 75%
    12:00 +11°C° 0 mm 4 mps 761 mmHg 75%
    13:00 +12°C° 0 mm 4 mps 761 mmHg 74%
    14:00 +12°C° 0 mm 3 mps 761 mmHg 76%
    15:00 +11°C° 0 mm 3 mps 762 mmHg 78%
    16:00 +11°C° 0 mm 3 mps 762 mmHg 80%
    17:00 +10°C° 0 mm 3 mps 762 mmHg 81%
    18:00 +9°C° 0 mm 3 mps 763 mmHg 82%
    19:00 +8°C° 0 mm 3 mps 763 mmHg 83%
    20:00 +8°C° 0 mm 3 mps 764 mmHg 83%
    21:00 +8°C° 0 mm 3 mps 764 mmHg 82%
    22:00 +7°C° 0 mm 2 mps 765 mmHg 82%
    23:00 +7°C° 0 mm 2 mps 765 mmHg 82%

    28 January, Sunday

    Time Temperature Precipitation Wind Pressure Humidity
    00:00 +7°C° 0 mm 2 mps 765 mmHg 82%
    01:00 +7°C° 0 mm 2 mps 766 mmHg 81%
    02:00 +6°C° 0 mm 2 mps 766 mmHg 81%
    03:00 +6°C° 0 mm 2 mps 766 mmHg 80%
    04:00 +6°C° 0 mm 2 mps 766 mmHg 80%
    05:00 +6°C° 0 mm 2 mps 766 mmHg 79%
    06:00 +6°C° 0 mm 2 mps 767 mmHg 78%
    07:00 +6°C° 0 mm 2 mps 767 mmHg 77%
    08:00 +7°C° 0 mm 2 mps 767 mmHg 74%
    09:00 +8°C° 0 mm 2 mps 767 mmHg 71%
    10:00 +10°C° 0 mm 2 mps 768 mmHg 67%
    11:00 +12°C° 0 mm 1 mps 767 mmHg 64%
    12:00 +13°C° 0 mm 1 mps 767 mmHg 61%
    13:00 +14°C° 0 mm 1 mps 767 mmHg 58%
    14:00 +13°C° 0 mm 1 mps 767 mmHg 61%
    15:00 +13°C° 0 mm 1 mps 767 mmHg 65%
    16:00 +12°C° 0 mm 1 mps 767 mmHg 68%
    17:00 +10°C° 0 mm 2 mps 767 mmHg 70%
    18:00 +9°C° 0 mm 2 mps 768 mmHg 71%
    19:00 +8°C° 0 mm 2 mps 768 mmHg 73%
    20:00 +8°C° 0 mm 2 mps 768 mmHg 72%
    21:00 +7°C° 0 mm 2 mps 768 mmHg 72%
    22:00 +7°C° 0 mm 2 mps 768 mmHg 71%
    23:00 +7°C° 0 mm 2 mps 768 mmHg 70%
    Show more